Index of /20260427/WXO-DD/model_rdps/10km/06/074
Name Last modified Size Description
Parent Directory -
20260427T06Z_MSC_RDPS_AbsoluteVorticity_IsbL-0250_RLatLon0.09_PT074H.grib2 2026-04-27 09:03 630K
20260427T06Z_MSC_RDPS_AbsoluteVorticity_IsbL-0500_RLatLon0.09_PT074H.grib2 2026-04-27 09:03 591K
20260427T06Z_MSC_RDPS_AbsoluteVorticity_IsbL-0700_RLatLon0.09_PT074H.grib2 2026-04-27 09:03 622K
20260427T06Z_MSC_RDPS_AbsoluteVorticity_IsbL-0850_RLatLon0.09_PT074H.grib2 2026-04-27 09:03 768K
20260427T06Z_MSC_RDPS_AirTemp_AGL-120m_RLatLon0.09_PT074H.grib2 2026-04-27 09:03 373K
20260427T06Z_MSC_RDPS_AirTemp_AGL-2m_RLatLon0.09_PT074H.grib2 2026-04-27 09:03 630K
20260427T06Z_MSC_RDPS_AirTemp_AGL-40m_RLatLon0.09_PT074H.grib2 2026-04-27 09:03 389K
20260427T06Z_MSC_RDPS_AirTemp_AGL-80m_RLatLon0.09_PT074H.grib2 2026-04-27 09:03 380K
20260427T06Z_MSC_RDPS_AirTemp_IsbL-0001_RLatLon0.09_PT074H.grib2 2026-04-27 09:03 297K
20260427T06Z_MSC_RDPS_AirTemp_IsbL-0005_RLatLon0.09_PT074H.grib2 2026-04-27 09:03 291K
20260427T06Z_MSC_RDPS_AirTemp_IsbL-0010_RLatLon0.09_PT074H.grib2 2026-04-27 09:03 301K
20260427T06Z_MSC_RDPS_AirTemp_IsbL-0020_RLatLon0.09_PT074H.grib2 2026-04-27 09:03 315K
20260427T06Z_MSC_RDPS_AirTemp_IsbL-0030_RLatLon0.09_PT074H.grib2 2026-04-27 09:03 340K
20260427T06Z_MSC_RDPS_AirTemp_IsbL-0050_RLatLon0.09_PT074H.grib2 2026-04-27 09:03 315K
20260427T06Z_MSC_RDPS_AirTemp_IsbL-0100_RLatLon0.09_PT074H.grib2 2026-04-27 09:03 430K
20260427T06Z_MSC_RDPS_AirTemp_IsbL-0150_RLatLon0.09_PT074H.grib2 2026-04-27 09:03 428K
20260427T06Z_MSC_RDPS_AirTemp_IsbL-0175_RLatLon0.09_PT074H.grib2 2026-04-27 09:03 414K
20260427T06Z_MSC_RDPS_AirTemp_IsbL-0200_RLatLon0.09_PT074H.grib2 2026-04-27 09:03 418K
20260427T06Z_MSC_RDPS_AirTemp_IsbL-0225_RLatLon0.09_PT074H.grib2 2026-04-27 09:03 418K
20260427T06Z_MSC_RDPS_AirTemp_IsbL-0250_RLatLon0.09_PT074H.grib2 2026-04-27 09:03 428K
20260427T06Z_MSC_RDPS_AirTemp_IsbL-0275_RLatLon0.09_PT074H.grib2 2026-04-27 09:03 407K
20260427T06Z_MSC_RDPS_AirTemp_IsbL-0300_RLatLon0.09_PT074H.grib2 2026-04-27 09:03 437K
20260427T06Z_MSC_RDPS_AirTemp_IsbL-0350_RLatLon0.09_PT074H.grib2 2026-04-27 09:03 425K
20260427T06Z_MSC_RDPS_AirTemp_IsbL-0400_RLatLon0.09_PT074H.grib2 2026-04-27 09:03 428K
20260427T06Z_MSC_RDPS_AirTemp_IsbL-0450_RLatLon0.09_PT074H.grib2 2026-04-27 09:03 399K
20260427T06Z_MSC_RDPS_AirTemp_IsbL-0500_RLatLon0.09_PT074H.grib2 2026-04-27 09:03 409K
20260427T06Z_MSC_RDPS_AirTemp_IsbL-0550_RLatLon0.09_PT074H.grib2 2026-04-27 09:03 425K
20260427T06Z_MSC_RDPS_AirTemp_IsbL-0600_RLatLon0.09_PT074H.grib2 2026-04-27 09:03 445K
20260427T06Z_MSC_RDPS_AirTemp_IsbL-0650_RLatLon0.09_PT074H.grib2 2026-04-27 09:03 460K
20260427T06Z_MSC_RDPS_AirTemp_IsbL-0700_RLatLon0.09_PT074H.grib2 2026-04-27 09:03 375K
20260427T06Z_MSC_RDPS_AirTemp_IsbL-0750_RLatLon0.09_PT074H.grib2 2026-04-27 09:03 406K
20260427T06Z_MSC_RDPS_AirTemp_IsbL-0800_RLatLon0.09_PT074H.grib2 2026-04-27 09:03 445K
20260427T06Z_MSC_RDPS_AirTemp_IsbL-0850_RLatLon0.09_PT074H.grib2 2026-04-27 09:03 497K
20260427T06Z_MSC_RDPS_AirTemp_IsbL-0875_RLatLon0.09_PT074H.grib2 2026-04-27 09:03 520K
20260427T06Z_MSC_RDPS_AirTemp_IsbL-0900_RLatLon0.09_PT074H.grib2 2026-04-27 09:03 527K
20260427T06Z_MSC_RDPS_AirTemp_IsbL-0925_RLatLon0.09_PT074H.grib2 2026-04-27 09:03 523K
20260427T06Z_MSC_RDPS_AirTemp_IsbL-0950_RLatLon0.09_PT074H.grib2 2026-04-27 09:03 523K
20260427T06Z_MSC_RDPS_AirTemp_IsbL-0970_RLatLon0.09_PT074H.grib2 2026-04-27 09:03 515K
20260427T06Z_MSC_RDPS_AirTemp_IsbL-0985_RLatLon0.09_PT074H.grib2 2026-04-27 09:03 502K
20260427T06Z_MSC_RDPS_AirTemp_IsbL-1000_RLatLon0.09_PT074H.grib2 2026-04-27 09:03 487K
20260427T06Z_MSC_RDPS_AirTemp_IsbL-1015_RLatLon0.09_PT074H.grib2 2026-04-27 09:03 488K
20260427T06Z_MSC_RDPS_Albedo_Sfc_RLatLon0.09_PT074H.grib2 2026-04-27 09:03 161K
20260427T06Z_MSC_RDPS_CAPE_Sfc_RLatLon0.09_PT074H.grib2 2026-04-27 09:03 1.6M
20260427T06Z_MSC_RDPS_CIN_Sfc_RLatLon0.09_PT074H.grib2 2026-04-27 09:03 1.1M
20260427T06Z_MSC_RDPS_CloudWater_EAtm_RLatLon0.09_PT074H.grib2 2026-04-27 09:03 219K
20260427T06Z_MSC_RDPS_ConvectivePrecip-Accum_Sfc_RLatLon0.09_PT074H.grib2 2026-04-27 09:03 1.3M
20260427T06Z_MSC_RDPS_DewPointDepression_AGL-2m_RLatLon0.09_PT074H.grib2 2026-04-27 09:03 392K
20260427T06Z_MSC_RDPS_DewPointDepression_IsbL-0001_RLatLon0.09_PT074H.grib2 2026-04-27 09:03 193
20260427T06Z_MSC_RDPS_DewPointDepression_IsbL-0005_RLatLon0.09_PT074H.grib2 2026-04-27 09:03 193
20260427T06Z_MSC_RDPS_DewPointDepression_IsbL-0010_RLatLon0.09_PT074H.grib2 2026-04-27 09:03 193
20260427T06Z_MSC_RDPS_DewPointDepression_IsbL-0020_RLatLon0.09_PT074H.grib2 2026-04-27 09:03 193
20260427T06Z_MSC_RDPS_DewPointDepression_IsbL-0030_RLatLon0.09_PT074H.grib2 2026-04-27 09:03 193
20260427T06Z_MSC_RDPS_DewPointDepression_IsbL-0050_RLatLon0.09_PT074H.grib2 2026-04-27 09:03 83K
20260427T06Z_MSC_RDPS_DewPointDepression_IsbL-0100_RLatLon0.09_PT074H.grib2 2026-04-27 09:03 128K
20260427T06Z_MSC_RDPS_DewPointDepression_IsbL-0150_RLatLon0.09_PT074H.grib2 2026-04-27 09:03 148K
20260427T06Z_MSC_RDPS_DewPointDepression_IsbL-0175_RLatLon0.09_PT074H.grib2 2026-04-27 09:03 177K
20260427T06Z_MSC_RDPS_DewPointDepression_IsbL-0200_RLatLon0.09_PT074H.grib2 2026-04-27 09:03 217K
20260427T06Z_MSC_RDPS_DewPointDepression_IsbL-0225_RLatLon0.09_PT074H.grib2 2026-04-27 09:03 263K
20260427T06Z_MSC_RDPS_DewPointDepression_IsbL-0250_RLatLon0.09_PT074H.grib2 2026-04-27 09:03 300K
20260427T06Z_MSC_RDPS_DewPointDepression_IsbL-0275_RLatLon0.09_PT074H.grib2 2026-04-27 09:03 306K
20260427T06Z_MSC_RDPS_DewPointDepression_IsbL-0300_RLatLon0.09_PT074H.grib2 2026-04-27 09:03 327K
20260427T06Z_MSC_RDPS_DewPointDepression_IsbL-0350_RLatLon0.09_PT074H.grib2 2026-04-27 09:03 329K
20260427T06Z_MSC_RDPS_DewPointDepression_IsbL-0400_RLatLon0.09_PT074H.grib2 2026-04-27 09:03 337K
20260427T06Z_MSC_RDPS_DewPointDepression_IsbL-0450_RLatLon0.09_PT074H.grib2 2026-04-27 09:03 344K
20260427T06Z_MSC_RDPS_DewPointDepression_IsbL-0500_RLatLon0.09_PT074H.grib2 2026-04-27 09:03 349K
20260427T06Z_MSC_RDPS_DewPointDepression_IsbL-0550_RLatLon0.09_PT074H.grib2 2026-04-27 09:03 362K
20260427T06Z_MSC_RDPS_DewPointDepression_IsbL-0600_RLatLon0.09_PT074H.grib2 2026-04-27 09:03 377K
20260427T06Z_MSC_RDPS_DewPointDepression_IsbL-0650_RLatLon0.09_PT074H.grib2 2026-04-27 09:03 386K
20260427T06Z_MSC_RDPS_DewPointDepression_IsbL-0700_RLatLon0.09_PT074H.grib2 2026-04-27 09:03 394K
20260427T06Z_MSC_RDPS_DewPointDepression_IsbL-0750_RLatLon0.09_PT074H.grib2 2026-04-27 09:03 410K
20260427T06Z_MSC_RDPS_DewPointDepression_IsbL-0800_RLatLon0.09_PT074H.grib2 2026-04-27 09:03 433K
20260427T06Z_MSC_RDPS_DewPointDepression_IsbL-0850_RLatLon0.09_PT074H.grib2 2026-04-27 09:03 464K
20260427T06Z_MSC_RDPS_DewPointDepression_IsbL-0875_RLatLon0.09_PT074H.grib2 2026-04-27 09:03 472K
20260427T06Z_MSC_RDPS_DewPointDepression_IsbL-0900_RLatLon0.09_PT074H.grib2 2026-04-27 09:03 461K
20260427T06Z_MSC_RDPS_DewPointDepression_IsbL-0925_RLatLon0.09_PT074H.grib2 2026-04-27 09:03 445K
20260427T06Z_MSC_RDPS_DewPointDepression_IsbL-0950_RLatLon0.09_PT074H.grib2 2026-04-27 09:03 439K
20260427T06Z_MSC_RDPS_DewPointDepression_IsbL-0970_RLatLon0.09_PT074H.grib2 2026-04-27 09:03 430K
20260427T06Z_MSC_RDPS_DewPointDepression_IsbL-0985_RLatLon0.09_PT074H.grib2 2026-04-27 09:03 425K
20260427T06Z_MSC_RDPS_DewPointDepression_IsbL-1000_RLatLon0.09_PT074H.grib2 2026-04-27 09:03 421K
20260427T06Z_MSC_RDPS_DewPointDepression_IsbL-1015_RLatLon0.09_PT074H.grib2 2026-04-27 09:03 412K
20260427T06Z_MSC_RDPS_DewPoint_AGL-2m_RLatLon0.09_PT074H.grib2 2026-04-27 09:03 308K
20260427T06Z_MSC_RDPS_DownwardLongwaveRadiationFlux-Accum_Sfc_RLatLon0.09_PT074H.grib2 2026-04-27 09:03 429K
20260427T06Z_MSC_RDPS_DownwardShortwaveRadiationFlux-Accum_NTAtm_RLatLon0.09_PT074H.grib2 2026-04-27 09:03 158K
20260427T06Z_MSC_RDPS_DownwardShortwaveRadiationFlux-Accum_Sfc_RLatLon0.09_PT074H.grib2 2026-04-27 09:03 624K
20260427T06Z_MSC_RDPS_FreezingRain-Accum1h_Sfc_RLatLon0.09_PT074H.grib2 2026-04-27 09:03 44K
20260427T06Z_MSC_RDPS_FreezingRain-Accum_Sfc_RLatLon0.09_PT074H.grib2 2026-04-27 09:03 225K
20260427T06Z_MSC_RDPS_GeopotentialHeight_IsbL-0001_RLatLon0.09_PT074H.grib2 2026-04-27 09:03 238K
20260427T06Z_MSC_RDPS_GeopotentialHeight_IsbL-0005_RLatLon0.09_PT074H.grib2 2026-04-27 09:03 336K
20260427T06Z_MSC_RDPS_GeopotentialHeight_IsbL-0010_RLatLon0.09_PT074H.grib2 2026-04-27 09:03 305K
20260427T06Z_MSC_RDPS_GeopotentialHeight_IsbL-0020_RLatLon0.09_PT074H.grib2 2026-04-27 09:03 303K
20260427T06Z_MSC_RDPS_GeopotentialHeight_IsbL-0030_RLatLon0.09_PT074H.grib2 2026-04-27 09:03 304K
20260427T06Z_MSC_RDPS_GeopotentialHeight_IsbL-0050_RLatLon0.09_PT074H.grib2 2026-04-27 09:03 306K
20260427T06Z_MSC_RDPS_GeopotentialHeight_IsbL-0100_RLatLon0.09_PT074H.grib2 2026-04-27 09:03 284K
20260427T06Z_MSC_RDPS_GeopotentialHeight_IsbL-0150_RLatLon0.09_PT074H.grib2 2026-04-27 09:03 230K
20260427T06Z_MSC_RDPS_GeopotentialHeight_IsbL-0175_RLatLon0.09_PT074H.grib2 2026-04-27 09:03 265K
20260427T06Z_MSC_RDPS_GeopotentialHeight_IsbL-0200_RLatLon0.09_PT074H.grib2 2026-04-27 09:03 267K
20260427T06Z_MSC_RDPS_GeopotentialHeight_IsbL-0225_RLatLon0.09_PT074H.grib2 2026-04-27 09:03 267K
20260427T06Z_MSC_RDPS_GeopotentialHeight_IsbL-0250_RLatLon0.09_PT074H.grib2 2026-04-27 09:03 268K
20260427T06Z_MSC_RDPS_GeopotentialHeight_IsbL-0275_RLatLon0.09_PT074H.grib2 2026-04-27 09:03 267K
20260427T06Z_MSC_RDPS_GeopotentialHeight_IsbL-0300_RLatLon0.09_PT074H.grib2 2026-04-27 09:03 267K
20260427T06Z_MSC_RDPS_GeopotentialHeight_IsbL-0350_RLatLon0.09_PT074H.grib2 2026-04-27 09:03 232K
20260427T06Z_MSC_RDPS_GeopotentialHeight_IsbL-0400_RLatLon0.09_PT074H.grib2 2026-04-27 09:03 229K
20260427T06Z_MSC_RDPS_GeopotentialHeight_IsbL-0450_RLatLon0.09_PT074H.grib2 2026-04-27 09:03 296K
20260427T06Z_MSC_RDPS_GeopotentialHeight_IsbL-0500_RLatLon0.09_PT074H.grib2 2026-04-27 09:03 290K
20260427T06Z_MSC_RDPS_GeopotentialHeight_IsbL-0550_RLatLon0.09_PT074H.grib2 2026-04-27 09:03 287K
20260427T06Z_MSC_RDPS_GeopotentialHeight_IsbL-0600_RLatLon0.09_PT074H.grib2 2026-04-27 09:03 284K
20260427T06Z_MSC_RDPS_GeopotentialHeight_IsbL-0650_RLatLon0.09_PT074H.grib2 2026-04-27 09:03 253K
20260427T06Z_MSC_RDPS_GeopotentialHeight_IsbL-0700_RLatLon0.09_PT074H.grib2 2026-04-27 09:03 333K
20260427T06Z_MSC_RDPS_GeopotentialHeight_IsbL-0750_RLatLon0.09_PT074H.grib2 2026-04-27 09:03 336K
20260427T06Z_MSC_RDPS_GeopotentialHeight_IsbL-0800_RLatLon0.09_PT074H.grib2 2026-04-27 09:03 375K
20260427T06Z_MSC_RDPS_GeopotentialHeight_IsbL-0850_RLatLon0.09_PT074H.grib2 2026-04-27 09:03 385K
20260427T06Z_MSC_RDPS_GeopotentialHeight_IsbL-0875_RLatLon0.09_PT074H.grib2 2026-04-27 09:03 389K
20260427T06Z_MSC_RDPS_GeopotentialHeight_IsbL-0900_RLatLon0.09_PT074H.grib2 2026-04-27 09:03 394K
20260427T06Z_MSC_RDPS_GeopotentialHeight_IsbL-0925_RLatLon0.09_PT074H.grib2 2026-04-27 09:03 396K
20260427T06Z_MSC_RDPS_GeopotentialHeight_IsbL-0950_RLatLon0.09_PT074H.grib2 2026-04-27 09:03 400K
20260427T06Z_MSC_RDPS_GeopotentialHeight_IsbL-0970_RLatLon0.09_PT074H.grib2 2026-04-27 09:03 405K
20260427T06Z_MSC_RDPS_GeopotentialHeight_IsbL-0985_RLatLon0.09_PT074H.grib2 2026-04-27 09:03 413K
20260427T06Z_MSC_RDPS_GeopotentialHeight_IsbL-1000_RLatLon0.09_PT074H.grib2 2026-04-27 09:03 425K
20260427T06Z_MSC_RDPS_GeopotentialHeight_IsbL-1015_RLatLon0.09_PT074H.grib2 2026-04-27 09:03 441K
20260427T06Z_MSC_RDPS_Humidex_Sfc_RLatLon0.09_PT074H.grib2 2026-04-27 09:03 2.4M
20260427T06Z_MSC_RDPS_IcePellets-Accum1h_Sfc_RLatLon0.09_PT074H.grib2 2026-04-27 09:03 2.8K
20260427T06Z_MSC_RDPS_IcePellets-Accum_Sfc_RLatLon0.09_PT074H.grib2 2026-04-27 09:03 31K
20260427T06Z_MSC_RDPS_KIndex_Sfc_RLatLon0.09_PT074H.grib2 2026-04-27 09:03 2.5M
20260427T06Z_MSC_RDPS_LatentHeatNetFlux_Sfc_RLatLon0.09_PT074H.grib2 2026-04-27 09:03 309K
20260427T06Z_MSC_RDPS_LiftedIndex-MU-VT_IsbL-0500_RLatLon0.09_PT074H.grib2 2026-04-27 09:03 2.4M
20260427T06Z_MSC_RDPS_NetLongwaveRadiationFlux-Accum_Sfc_RLatLon0.09_PT074H.grib2 2026-04-27 09:03 474K
20260427T06Z_MSC_RDPS_NetShortwaveRadiationFlux-Accum_Sfc_RLatLon0.09_PT074H.grib2 2026-04-27 09:03 627K
20260427T06Z_MSC_RDPS_PlanetaryBoundaryLayerHeight_Sfc_RLatLon0.09_PT074H.grib2 2026-04-27 09:03 1.1M
20260427T06Z_MSC_RDPS_Precip-Accum1h_Sfc_RLatLon0.09_PT074H.grib2 2026-04-27 09:03 1.2M
20260427T06Z_MSC_RDPS_Precip-Accum_Sfc_RLatLon0.09_PT074H.grib2 2026-04-27 09:03 2.2M
20260427T06Z_MSC_RDPS_PrecipRate_Sfc_RLatLon0.09_PT074H.grib2 2026-04-27 09:03 171K
20260427T06Z_MSC_RDPS_PrecipType-Instant_Sfc_RLatLon0.09_PT074H.grib2 2026-04-27 09:03 554K
20260427T06Z_MSC_RDPS_Pressure-Trend3h_Sfc_RLatLon0.09_PT074H.grib2 2026-04-27 09:03 1.2M
20260427T06Z_MSC_RDPS_Pressure_MSL_RLatLon0.09_PT074H.grib2 2026-04-27 09:03 323K
20260427T06Z_MSC_RDPS_Pressure_PVU-1.5_RLatLon0.09_PT074H.grib2 2026-04-27 09:03 2.4M
20260427T06Z_MSC_RDPS_Pressure_PVU-1_RLatLon0.09_PT074H.grib2 2026-04-27 09:03 2.4M
20260427T06Z_MSC_RDPS_Pressure_PVU-2_RLatLon0.09_PT074H.grib2 2026-04-27 09:03 2.4M
20260427T06Z_MSC_RDPS_Pressure_Sfc_RLatLon0.09_PT074H.grib2 2026-04-27 09:03 500K
20260427T06Z_MSC_RDPS_RadiativeTemp_Sfc_RLatLon0.09_PT074H.grib2 2026-04-27 09:03 304K
20260427T06Z_MSC_RDPS_Rain-Accum1h_Sfc_RLatLon0.09_PT074H.grib2 2026-04-27 09:03 579K
20260427T06Z_MSC_RDPS_Rain-Accum_Sfc_RLatLon0.09_PT074H.grib2 2026-04-27 09:03 1.7M
20260427T06Z_MSC_RDPS_RelativeHumidity_AGL-2m_RLatLon0.09_PT074H.grib2 2026-04-27 09:03 1.0M
20260427T06Z_MSC_RDPS_RelativeHumidity_IsbL-0010_RLatLon0.09_PT074H.grib2 2026-04-27 09:03 625K
20260427T06Z_MSC_RDPS_RelativeHumidity_IsbL-0020_RLatLon0.09_PT074H.grib2 2026-04-27 09:03 669K
20260427T06Z_MSC_RDPS_RelativeHumidity_IsbL-0030_RLatLon0.09_PT074H.grib2 2026-04-27 09:03 606K
20260427T06Z_MSC_RDPS_RelativeHumidity_IsbL-0050_RLatLon0.09_PT074H.grib2 2026-04-27 09:03 370K
20260427T06Z_MSC_RDPS_RelativeHumidity_IsbL-0100_RLatLon0.09_PT074H.grib2 2026-04-27 09:03 281K
20260427T06Z_MSC_RDPS_RelativeHumidity_IsbL-0150_RLatLon0.09_PT074H.grib2 2026-04-27 09:03 410K
20260427T06Z_MSC_RDPS_RelativeHumidity_IsbL-0175_RLatLon0.09_PT074H.grib2 2026-04-27 09:03 483K
20260427T06Z_MSC_RDPS_RelativeHumidity_IsbL-0200_RLatLon0.09_PT074H.grib2 2026-04-27 09:03 559K
20260427T06Z_MSC_RDPS_RelativeHumidity_IsbL-0225_RLatLon0.09_PT074H.grib2 2026-04-27 09:03 627K
20260427T06Z_MSC_RDPS_RelativeHumidity_IsbL-0250_RLatLon0.09_PT074H.grib2 2026-04-27 09:03 702K
20260427T06Z_MSC_RDPS_RelativeHumidity_IsbL-0275_RLatLon0.09_PT074H.grib2 2026-04-27 09:03 726K
20260427T06Z_MSC_RDPS_RelativeHumidity_IsbL-0300_RLatLon0.09_PT074H.grib2 2026-04-27 09:03 769K
20260427T06Z_MSC_RDPS_RelativeHumidity_IsbL-0350_RLatLon0.09_PT074H.grib2 2026-04-27 09:03 783K
20260427T06Z_MSC_RDPS_RelativeHumidity_IsbL-0400_RLatLon0.09_PT074H.grib2 2026-04-27 09:03 796K
20260427T06Z_MSC_RDPS_RelativeHumidity_IsbL-0450_RLatLon0.09_PT074H.grib2 2026-04-27 09:03 797K
20260427T06Z_MSC_RDPS_RelativeHumidity_IsbL-0500_RLatLon0.09_PT074H.grib2 2026-04-27 09:03 800K
20260427T06Z_MSC_RDPS_RelativeHumidity_IsbL-0550_RLatLon0.09_PT074H.grib2 2026-04-27 09:03 819K
20260427T06Z_MSC_RDPS_RelativeHumidity_IsbL-0600_RLatLon0.09_PT074H.grib2 2026-04-27 09:03 843K
20260427T06Z_MSC_RDPS_RelativeHumidity_IsbL-0650_RLatLon0.09_PT074H.grib2 2026-04-27 09:03 859K
20260427T06Z_MSC_RDPS_RelativeHumidity_IsbL-0700_RLatLon0.09_PT074H.grib2 2026-04-27 09:03 879K
20260427T06Z_MSC_RDPS_RelativeHumidity_IsbL-0750_RLatLon0.09_PT074H.grib2 2026-04-27 09:03 914K
20260427T06Z_MSC_RDPS_RelativeHumidity_IsbL-0800_RLatLon0.09_PT074H.grib2 2026-04-27 09:03 966K
20260427T06Z_MSC_RDPS_RelativeHumidity_IsbL-0850_RLatLon0.09_PT074H.grib2 2026-04-27 09:03 1.0M
20260427T06Z_MSC_RDPS_RelativeHumidity_IsbL-0875_RLatLon0.09_PT074H.grib2 2026-04-27 09:03 1.0M
20260427T06Z_MSC_RDPS_RelativeHumidity_IsbL-0900_RLatLon0.09_PT074H.grib2 2026-04-27 09:03 1.1M
20260427T06Z_MSC_RDPS_RelativeHumidity_IsbL-0925_RLatLon0.09_PT074H.grib2 2026-04-27 09:03 1.1M
20260427T06Z_MSC_RDPS_RelativeHumidity_IsbL-0950_RLatLon0.09_PT074H.grib2 2026-04-27 09:03 1.1M
20260427T06Z_MSC_RDPS_RelativeHumidity_IsbL-0970_RLatLon0.09_PT074H.grib2 2026-04-27 09:03 1.0M
20260427T06Z_MSC_RDPS_RelativeHumidity_IsbL-0985_RLatLon0.09_PT074H.grib2 2026-04-27 09:03 1.0M
20260427T06Z_MSC_RDPS_RelativeHumidity_IsbL-1000_RLatLon0.09_PT074H.grib2 2026-04-27 09:03 1.0M
20260427T06Z_MSC_RDPS_RelativeHumidity_IsbL-1015_RLatLon0.09_PT074H.grib2 2026-04-27 09:03 1.0M
20260427T06Z_MSC_RDPS_Runoff-Accum_Sfc_RLatLon0.09_PT074H.grib2 2026-04-27 09:03 62K
20260427T06Z_MSC_RDPS_SWEATIndex_Sfc_RLatLon0.09_PT074H.grib2 2026-04-27 09:03 2.4M
20260427T06Z_MSC_RDPS_SeeingIndex_EAtm_RLatLon0.09_PT074H.grib2 2026-04-27 09:03 1.0M
20260427T06Z_MSC_RDPS_SensibleHeatNetFlux_Sfc_RLatLon0.09_PT074H.grib2 2026-04-27 09:03 289K
20260427T06Z_MSC_RDPS_ShowalterIndex_IsbL-0500_RLatLon0.09_PT074H.grib2 2026-04-27 09:03 2.6M
20260427T06Z_MSC_RDPS_SkyTransparencyIndex_EAtm_RLatLon0.09_PT074H.grib2 2026-04-27 09:03 673K
20260427T06Z_MSC_RDPS_Snow-Accum1h_Sfc_RLatLon0.09_PT074H.grib2 2026-04-27 09:03 463K
20260427T06Z_MSC_RDPS_Snow-Accum_Sfc_RLatLon0.09_PT074H.grib2 2026-04-27 09:03 844K
20260427T06Z_MSC_RDPS_SnowDensity_Sfc_RLatLon0.09_PT074H.grib2 2026-04-27 09:03 186K
20260427T06Z_MSC_RDPS_SnowDepth_Sfc_RLatLon0.09_PT074H.grib2 2026-04-27 09:03 695K
20260427T06Z_MSC_RDPS_SoilTemp_DBS-0to10cm_RLatLon0.09_PT074H.grib2 2026-04-27 09:03 238K
20260427T06Z_MSC_RDPS_SoilTemp_Sfc_RLatLon0.09_PT074H.grib2 2026-04-27 09:03 268K
20260427T06Z_MSC_RDPS_SoilVolumetricIceContent_Sfc_RLatLon0.09_PT074H.grib2 2026-04-27 09:03 165K
20260427T06Z_MSC_RDPS_SoilVolumetricWaterContent_DBS-0to10cm_RLatLon0.09_PT074H.grib2 2026-04-27 09:03 268K
20260427T06Z_MSC_RDPS_SoilVolumetricWaterContent_DBS-0to1cm_RLatLon0.09_PT074H.grib2 2026-04-27 09:03 338K
20260427T06Z_MSC_RDPS_SpecificHumidity_AGL-120m_RLatLon0.09_PT074H.grib2 2026-04-27 09:03 486K
20260427T06Z_MSC_RDPS_SpecificHumidity_AGL-2m_RLatLon0.09_PT074H.grib2 2026-04-27 09:03 651K
20260427T06Z_MSC_RDPS_SpecificHumidity_AGL-40m_RLatLon0.09_PT074H.grib2 2026-04-27 09:03 491K
20260427T06Z_MSC_RDPS_SpecificHumidity_AGL-80m_RLatLon0.09_PT074H.grib2 2026-04-27 09:03 488K
20260427T06Z_MSC_RDPS_SpecificHumidity_IsbL-0001_RLatLon0.09_PT074H.grib2 2026-04-27 09:03 342K
20260427T06Z_MSC_RDPS_SpecificHumidity_IsbL-0005_RLatLon0.09_PT074H.grib2 2026-04-27 09:03 353K
20260427T06Z_MSC_RDPS_SpecificHumidity_IsbL-0010_RLatLon0.09_PT074H.grib2 2026-04-27 09:03 391K
20260427T06Z_MSC_RDPS_SpecificHumidity_IsbL-0020_RLatLon0.09_PT074H.grib2 2026-04-27 09:03 377K
20260427T06Z_MSC_RDPS_SpecificHumidity_IsbL-0030_RLatLon0.09_PT074H.grib2 2026-04-27 09:03 435K
20260427T06Z_MSC_RDPS_SpecificHumidity_IsbL-0050_RLatLon0.09_PT074H.grib2 2026-04-27 09:03 445K
20260427T06Z_MSC_RDPS_SpecificHumidity_IsbL-0100_RLatLon0.09_PT074H.grib2 2026-04-27 09:03 348K
20260427T06Z_MSC_RDPS_SpecificHumidity_IsbL-0150_RLatLon0.09_PT074H.grib2 2026-04-27 09:03 452K
20260427T06Z_MSC_RDPS_SpecificHumidity_IsbL-0175_RLatLon0.09_PT074H.grib2 2026-04-27 09:03 437K
20260427T06Z_MSC_RDPS_SpecificHumidity_IsbL-0200_RLatLon0.09_PT074H.grib2 2026-04-27 09:03 453K
20260427T06Z_MSC_RDPS_SpecificHumidity_IsbL-0225_RLatLon0.09_PT074H.grib2 2026-04-27 09:03 456K
20260427T06Z_MSC_RDPS_SpecificHumidity_IsbL-0250_RLatLon0.09_PT074H.grib2 2026-04-27 09:03 564K
20260427T06Z_MSC_RDPS_SpecificHumidity_IsbL-0275_RLatLon0.09_PT074H.grib2 2026-04-27 09:03 475K
20260427T06Z_MSC_RDPS_SpecificHumidity_IsbL-0300_RLatLon0.09_PT074H.grib2 2026-04-27 09:03 574K
20260427T06Z_MSC_RDPS_SpecificHumidity_IsbL-0350_RLatLon0.09_PT074H.grib2 2026-04-27 09:03 564K
20260427T06Z_MSC_RDPS_SpecificHumidity_IsbL-0400_RLatLon0.09_PT074H.grib2 2026-04-27 09:03 518K
20260427T06Z_MSC_RDPS_SpecificHumidity_IsbL-0450_RLatLon0.09_PT074H.grib2 2026-04-27 09:03 567K
20260427T06Z_MSC_RDPS_SpecificHumidity_IsbL-0500_RLatLon0.09_PT074H.grib2 2026-04-27 09:03 502K
20260427T06Z_MSC_RDPS_SpecificHumidity_IsbL-0550_RLatLon0.09_PT074H.grib2 2026-04-27 09:03 579K
20260427T06Z_MSC_RDPS_SpecificHumidity_IsbL-0600_RLatLon0.09_PT074H.grib2 2026-04-27 09:03 636K
20260427T06Z_MSC_RDPS_SpecificHumidity_IsbL-0650_RLatLon0.09_PT074H.grib2 2026-04-27 09:03 556K
20260427T06Z_MSC_RDPS_SpecificHumidity_IsbL-0700_RLatLon0.09_PT074H.grib2 2026-04-27 09:03 598K
20260427T06Z_MSC_RDPS_SpecificHumidity_IsbL-0750_RLatLon0.09_PT074H.grib2 2026-04-27 09:03 646K
20260427T06Z_MSC_RDPS_SpecificHumidity_IsbL-0800_RLatLon0.09_PT074H.grib2 2026-04-27 09:03 715K
20260427T06Z_MSC_RDPS_SpecificHumidity_IsbL-0850_RLatLon0.09_PT074H.grib2 2026-04-27 09:03 789K
20260427T06Z_MSC_RDPS_SpecificHumidity_IsbL-0875_RLatLon0.09_PT074H.grib2 2026-04-27 09:03 821K
20260427T06Z_MSC_RDPS_SpecificHumidity_IsbL-0900_RLatLon0.09_PT074H.grib2 2026-04-27 09:03 834K
20260427T06Z_MSC_RDPS_SpecificHumidity_IsbL-0925_RLatLon0.09_PT074H.grib2 2026-04-27 09:03 834K
20260427T06Z_MSC_RDPS_SpecificHumidity_IsbL-0950_RLatLon0.09_PT074H.grib2 2026-04-27 09:03 834K
20260427T06Z_MSC_RDPS_SpecificHumidity_IsbL-0970_RLatLon0.09_PT074H.grib2 2026-04-27 09:03 825K
20260427T06Z_MSC_RDPS_SpecificHumidity_IsbL-0985_RLatLon0.09_PT074H.grib2 2026-04-27 09:03 675K
20260427T06Z_MSC_RDPS_SpecificHumidity_IsbL-1000_RLatLon0.09_PT074H.grib2 2026-04-27 09:03 669K
20260427T06Z_MSC_RDPS_SpecificHumidity_IsbL-1015_RLatLon0.09_PT074H.grib2 2026-04-27 09:03 660K
20260427T06Z_MSC_RDPS_SpecificHumidity_Sfc_RLatLon0.09_PT074H.grib2 2026-04-27 09:03 293K
20260427T06Z_MSC_RDPS_StormRelativeHelicity_EtaL-10000_RLatLon0.09_PT074H.grib2 2026-04-27 09:03 1.1M
20260427T06Z_MSC_RDPS_StormSeverityIndex_EtaL-10000_RLatLon0.09_PT074H.grib2 2026-04-27 09:03 1.1M
20260427T06Z_MSC_RDPS_Thickness_IsbL-0850to0700_RLatLon0.09_PT074H.grib2 2026-04-27 09:03 177K
20260427T06Z_MSC_RDPS_Thickness_IsbL-1000to0500_RLatLon0.09_PT074H.grib2 2026-04-27 09:03 198K
20260427T06Z_MSC_RDPS_Thickness_IsbL-1000to0850_RLatLon0.09_PT074H.grib2 2026-04-27 09:03 259K
20260427T06Z_MSC_RDPS_TotalCloudCover_Sfc_RLatLon0.09_PT074H.grib2 2026-04-27 09:03 663K
20260427T06Z_MSC_RDPS_TotalTotalsIndex_Sfc_RLatLon0.09_PT074H.grib2 2026-04-27 09:03 2.4M
20260427T06Z_MSC_RDPS_UVIndex-ClearSky_Sfc_RLatLon0.09_PT074H.grib2 2026-04-27 09:03 90K
20260427T06Z_MSC_RDPS_UVIndex_Sfc_RLatLon0.09_PT074H.grib2 2026-04-27 09:03 163K
20260427T06Z_MSC_RDPS_UpwardLongwaveRadiationFlux_NTAtm_RLatLon0.09_PT074H.grib2 2026-04-27 09:03 492K
20260427T06Z_MSC_RDPS_UpwardShortwaveRadiationFlux_NTAtm_RLatLon0.09_PT074H.grib2 2026-04-27 09:03 139K
20260427T06Z_MSC_RDPS_VerticalVelocity_IsbL-0250_RLatLon0.09_PT074H.grib2 2026-04-27 09:03 556K
20260427T06Z_MSC_RDPS_VerticalVelocity_IsbL-0500_RLatLon0.09_PT074H.grib2 2026-04-27 09:03 544K
20260427T06Z_MSC_RDPS_VerticalVelocity_IsbL-0700_RLatLon0.09_PT074H.grib2 2026-04-27 09:03 589K
20260427T06Z_MSC_RDPS_VerticalVelocity_IsbL-0850_RLatLon0.09_PT074H.grib2 2026-04-27 09:03 678K
20260427T06Z_MSC_RDPS_VerticalWindShear_EtaL-6500_RLatLon0.09_PT074H.grib2 2026-04-27 09:03 1.2M
20260427T06Z_MSC_RDPS_WindChill_Sfc_RLatLon0.09_PT074H.grib2 2026-04-27 09:03 1.1M
20260427T06Z_MSC_RDPS_WindDir_AGL-10m_RLatLon0.09_PT074H.grib2 2026-04-27 09:03 1.0M
20260427T06Z_MSC_RDPS_WindDir_AGL-120m_RLatLon0.09_PT074H.grib2 2026-04-27 09:03 609K
20260427T06Z_MSC_RDPS_WindDir_AGL-40m_RLatLon0.09_PT074H.grib2 2026-04-27 09:03 641K
20260427T06Z_MSC_RDPS_WindDir_AGL-80m_RLatLon0.09_PT074H.grib2 2026-04-27 09:03 621K
20260427T06Z_MSC_RDPS_WindDir_IsbL-0001_RLatLon0.09_PT074H.grib2 2026-04-27 09:03 305K
20260427T06Z_MSC_RDPS_WindDir_IsbL-0005_RLatLon0.09_PT074H.grib2 2026-04-27 09:03 359K
20260427T06Z_MSC_RDPS_WindDir_IsbL-0010_RLatLon0.09_PT074H.grib2 2026-04-27 09:03 373K
20260427T06Z_MSC_RDPS_WindDir_IsbL-0020_RLatLon0.09_PT074H.grib2 2026-04-27 09:03 424K
20260427T06Z_MSC_RDPS_WindDir_IsbL-0030_RLatLon0.09_PT074H.grib2 2026-04-27 09:03 416K
20260427T06Z_MSC_RDPS_WindDir_IsbL-0050_RLatLon0.09_PT074H.grib2 2026-04-27 09:03 433K
20260427T06Z_MSC_RDPS_WindDir_IsbL-0100_RLatLon0.09_PT074H.grib2 2026-04-27 09:03 431K
20260427T06Z_MSC_RDPS_WindDir_IsbL-0150_RLatLon0.09_PT074H.grib2 2026-04-27 09:03 418K
20260427T06Z_MSC_RDPS_WindDir_IsbL-0175_RLatLon0.09_PT074H.grib2 2026-04-27 09:03 436K
20260427T06Z_MSC_RDPS_WindDir_IsbL-0200_RLatLon0.09_PT074H.grib2 2026-04-27 09:03 448K
20260427T06Z_MSC_RDPS_WindDir_IsbL-0225_RLatLon0.09_PT074H.grib2 2026-04-27 09:03 453K
20260427T06Z_MSC_RDPS_WindDir_IsbL-0250_RLatLon0.09_PT074H.grib2 2026-04-27 09:03 457K
20260427T06Z_MSC_RDPS_WindDir_IsbL-0275_RLatLon0.09_PT074H.grib2 2026-04-27 09:03 484K
20260427T06Z_MSC_RDPS_WindDir_IsbL-0300_RLatLon0.09_PT074H.grib2 2026-04-27 09:03 478K
20260427T06Z_MSC_RDPS_WindDir_IsbL-0350_RLatLon0.09_PT074H.grib2 2026-04-27 09:03 503K
20260427T06Z_MSC_RDPS_WindDir_IsbL-0400_RLatLon0.09_PT074H.grib2 2026-04-27 09:03 513K
20260427T06Z_MSC_RDPS_WindDir_IsbL-0450_RLatLon0.09_PT074H.grib2 2026-04-27 09:03 528K
20260427T06Z_MSC_RDPS_WindDir_IsbL-0500_RLatLon0.09_PT074H.grib2 2026-04-27 09:03 543K
20260427T06Z_MSC_RDPS_WindDir_IsbL-0550_RLatLon0.09_PT074H.grib2 2026-04-27 09:03 560K
20260427T06Z_MSC_RDPS_WindDir_IsbL-0600_RLatLon0.09_PT074H.grib2 2026-04-27 09:03 591K
20260427T06Z_MSC_RDPS_WindDir_IsbL-0650_RLatLon0.09_PT074H.grib2 2026-04-27 09:03 632K
20260427T06Z_MSC_RDPS_WindDir_IsbL-0700_RLatLon0.09_PT074H.grib2 2026-04-27 09:03 676K
20260427T06Z_MSC_RDPS_WindDir_IsbL-0750_RLatLon0.09_PT074H.grib2 2026-04-27 09:03 718K
20260427T06Z_MSC_RDPS_WindDir_IsbL-0800_RLatLon0.09_PT074H.grib2 2026-04-27 09:03 778K
20260427T06Z_MSC_RDPS_WindDir_IsbL-0850_RLatLon0.09_PT074H.grib2 2026-04-27 09:03 853K
20260427T06Z_MSC_RDPS_WindDir_IsbL-0875_RLatLon0.09_PT074H.grib2 2026-04-27 09:03 885K
20260427T06Z_MSC_RDPS_WindDir_IsbL-0900_RLatLon0.09_PT074H.grib2 2026-04-27 09:03 906K
20260427T06Z_MSC_RDPS_WindDir_IsbL-0925_RLatLon0.09_PT074H.grib2 2026-04-27 09:03 917K
20260427T06Z_MSC_RDPS_WindDir_IsbL-0950_RLatLon0.09_PT074H.grib2 2026-04-27 09:03 917K
20260427T06Z_MSC_RDPS_WindDir_IsbL-0970_RLatLon0.09_PT074H.grib2 2026-04-27 09:03 926K
20260427T06Z_MSC_RDPS_WindDir_IsbL-0985_RLatLon0.09_PT074H.grib2 2026-04-27 09:03 936K
20260427T06Z_MSC_RDPS_WindDir_IsbL-1000_RLatLon0.09_PT074H.grib2 2026-04-27 09:03 950K
20260427T06Z_MSC_RDPS_WindDir_IsbL-1015_RLatLon0.09_PT074H.grib2 2026-04-27 09:03 967K
20260427T06Z_MSC_RDPS_WindGust-Max_AGL-10m_RLatLon0.09_PT074H.grib2 2026-04-27 09:03 1.0M
20260427T06Z_MSC_RDPS_WindGust-Min_AGL-10m_RLatLon0.09_PT074H.grib2 2026-04-27 09:03 971K
20260427T06Z_MSC_RDPS_WindGust_AGL-10m_RLatLon0.09_PT074H.grib2 2026-04-27 09:03 1.0M
20260427T06Z_MSC_RDPS_WindSpeed_AGL-10m_RLatLon0.09_PT074H.grib2 2026-04-27 09:03 834K
20260427T06Z_MSC_RDPS_WindSpeed_AGL-120m_RLatLon0.09_PT074H.grib2 2026-04-27 09:03 538K
20260427T06Z_MSC_RDPS_WindSpeed_AGL-40m_RLatLon0.09_PT074H.grib2 2026-04-27 09:03 538K
20260427T06Z_MSC_RDPS_WindSpeed_AGL-80m_RLatLon0.09_PT074H.grib2 2026-04-27 09:03 538K
20260427T06Z_MSC_RDPS_WindSpeed_IsbL-0001_RLatLon0.09_PT074H.grib2 2026-04-27 09:03 252K
20260427T06Z_MSC_RDPS_WindSpeed_IsbL-0005_RLatLon0.09_PT074H.grib2 2026-04-27 09:03 294K
20260427T06Z_MSC_RDPS_WindSpeed_IsbL-0010_RLatLon0.09_PT074H.grib2 2026-04-27 09:03 401K
20260427T06Z_MSC_RDPS_WindSpeed_IsbL-0020_RLatLon0.09_PT074H.grib2 2026-04-27 09:03 325K
20260427T06Z_MSC_RDPS_WindSpeed_IsbL-0030_RLatLon0.09_PT074H.grib2 2026-04-27 09:03 323K
20260427T06Z_MSC_RDPS_WindSpeed_IsbL-0050_RLatLon0.09_PT074H.grib2 2026-04-27 09:03 352K
20260427T06Z_MSC_RDPS_WindSpeed_IsbL-0100_RLatLon0.09_PT074H.grib2 2026-04-27 09:03 483K
20260427T06Z_MSC_RDPS_WindSpeed_IsbL-0150_RLatLon0.09_PT074H.grib2 2026-04-27 09:03 387K
20260427T06Z_MSC_RDPS_WindSpeed_IsbL-0175_RLatLon0.09_PT074H.grib2 2026-04-27 09:03 433K
20260427T06Z_MSC_RDPS_WindSpeed_IsbL-0200_RLatLon0.09_PT074H.grib2 2026-04-27 09:03 448K
20260427T06Z_MSC_RDPS_WindSpeed_IsbL-0225_RLatLon0.09_PT074H.grib2 2026-04-27 09:03 454K
20260427T06Z_MSC_RDPS_WindSpeed_IsbL-0250_RLatLon0.09_PT074H.grib2 2026-04-27 09:03 459K
20260427T06Z_MSC_RDPS_WindSpeed_IsbL-0275_RLatLon0.09_PT074H.grib2 2026-04-27 09:03 477K
20260427T06Z_MSC_RDPS_WindSpeed_IsbL-0300_RLatLon0.09_PT074H.grib2 2026-04-27 09:03 473K
20260427T06Z_MSC_RDPS_WindSpeed_IsbL-0350_RLatLon0.09_PT074H.grib2 2026-04-27 09:03 484K
20260427T06Z_MSC_RDPS_WindSpeed_IsbL-0400_RLatLon0.09_PT074H.grib2 2026-04-27 09:03 468K
20260427T06Z_MSC_RDPS_WindSpeed_IsbL-0450_RLatLon0.09_PT074H.grib2 2026-04-27 09:03 468K
20260427T06Z_MSC_RDPS_WindSpeed_IsbL-0500_RLatLon0.09_PT074H.grib2 2026-04-27 09:03 586K
20260427T06Z_MSC_RDPS_WindSpeed_IsbL-0550_RLatLon0.09_PT074H.grib2 2026-04-27 09:03 585K
20260427T06Z_MSC_RDPS_WindSpeed_IsbL-0600_RLatLon0.09_PT074H.grib2 2026-04-27 09:03 592K
20260427T06Z_MSC_RDPS_WindSpeed_IsbL-0650_RLatLon0.09_PT074H.grib2 2026-04-27 09:03 613K
20260427T06Z_MSC_RDPS_WindSpeed_IsbL-0700_RLatLon0.09_PT074H.grib2 2026-04-27 09:03 638K
20260427T06Z_MSC_RDPS_WindSpeed_IsbL-0750_RLatLon0.09_PT074H.grib2 2026-04-27 09:03 710K
20260427T06Z_MSC_RDPS_WindSpeed_IsbL-0800_RLatLon0.09_PT074H.grib2 2026-04-27 09:03 749K
20260427T06Z_MSC_RDPS_WindSpeed_IsbL-0850_RLatLon0.09_PT074H.grib2 2026-04-27 09:03 798K
20260427T06Z_MSC_RDPS_WindSpeed_IsbL-0875_RLatLon0.09_PT074H.grib2 2026-04-27 09:03 821K
20260427T06Z_MSC_RDPS_WindSpeed_IsbL-0900_RLatLon0.09_PT074H.grib2 2026-04-27 09:03 839K
20260427T06Z_MSC_RDPS_WindSpeed_IsbL-0925_RLatLon0.09_PT074H.grib2 2026-04-27 09:03 853K
20260427T06Z_MSC_RDPS_WindSpeed_IsbL-0950_RLatLon0.09_PT074H.grib2 2026-04-27 09:03 856K
20260427T06Z_MSC_RDPS_WindSpeed_IsbL-0970_RLatLon0.09_PT074H.grib2 2026-04-27 09:03 857K
20260427T06Z_MSC_RDPS_WindSpeed_IsbL-0985_RLatLon0.09_PT074H.grib2 2026-04-27 09:03 850K
20260427T06Z_MSC_RDPS_WindSpeed_IsbL-1000_RLatLon0.09_PT074H.grib2 2026-04-27 09:03 844K
20260427T06Z_MSC_RDPS_WindSpeed_IsbL-1015_RLatLon0.09_PT074H.grib2 2026-04-27 09:03 834K
20260427T06Z_MSC_RDPS_WindU_AGL-10m_RLatLon0.09_PT074H.grib2 2026-04-27 09:03 428K
20260427T06Z_MSC_RDPS_WindU_AGL-120m_RLatLon0.09_PT074H.grib2 2026-04-27 09:03 418K
20260427T06Z_MSC_RDPS_WindU_AGL-40m_RLatLon0.09_PT074H.grib2 2026-04-27 09:03 536K
20260427T06Z_MSC_RDPS_WindU_AGL-80m_RLatLon0.09_PT074H.grib2 2026-04-27 09:03 535K
20260427T06Z_MSC_RDPS_WindU_IsbL-0001_RLatLon0.09_PT074H.grib2 2026-04-27 09:03 241K
20260427T06Z_MSC_RDPS_WindU_IsbL-0005_RLatLon0.09_PT074H.grib2 2026-04-27 09:03 287K
20260427T06Z_MSC_RDPS_WindU_IsbL-0010_RLatLon0.09_PT074H.grib2 2026-04-27 09:03 299K
20260427T06Z_MSC_RDPS_WindU_IsbL-0020_RLatLon0.09_PT074H.grib2 2026-04-27 09:03 315K
20260427T06Z_MSC_RDPS_WindU_IsbL-0030_RLatLon0.09_PT074H.grib2 2026-04-27 09:03 314K
20260427T06Z_MSC_RDPS_WindU_IsbL-0050_RLatLon0.09_PT074H.grib2 2026-04-27 09:03 344K
20260427T06Z_MSC_RDPS_WindU_IsbL-0100_RLatLon0.09_PT074H.grib2 2026-04-27 09:03 437K
20260427T06Z_MSC_RDPS_WindU_IsbL-0150_RLatLon0.09_PT074H.grib2 2026-04-27 09:03 401K
20260427T06Z_MSC_RDPS_WindU_IsbL-0175_RLatLon0.09_PT074H.grib2 2026-04-27 09:03 425K
20260427T06Z_MSC_RDPS_WindU_IsbL-0200_RLatLon0.09_PT074H.grib2 2026-04-27 09:03 341K
20260427T06Z_MSC_RDPS_WindU_IsbL-0225_RLatLon0.09_PT074H.grib2 2026-04-27 09:03 346K
20260427T06Z_MSC_RDPS_WindU_IsbL-0250_RLatLon0.09_PT074H.grib2 2026-04-27 09:03 348K
20260427T06Z_MSC_RDPS_WindU_IsbL-0275_RLatLon0.09_PT074H.grib2 2026-04-27 09:03 363K
20260427T06Z_MSC_RDPS_WindU_IsbL-0300_RLatLon0.09_PT074H.grib2 2026-04-27 09:03 358K
20260427T06Z_MSC_RDPS_WindU_IsbL-0350_RLatLon0.09_PT074H.grib2 2026-04-27 09:03 368K
20260427T06Z_MSC_RDPS_WindU_IsbL-0400_RLatLon0.09_PT074H.grib2 2026-04-27 09:03 472K
20260427T06Z_MSC_RDPS_WindU_IsbL-0450_RLatLon0.09_PT074H.grib2 2026-04-27 09:03 472K
20260427T06Z_MSC_RDPS_WindU_IsbL-0500_RLatLon0.09_PT074H.grib2 2026-04-27 09:03 473K
20260427T06Z_MSC_RDPS_WindU_IsbL-0550_RLatLon0.09_PT074H.grib2 2026-04-27 09:03 456K
20260427T06Z_MSC_RDPS_WindU_IsbL-0600_RLatLon0.09_PT074H.grib2 2026-04-27 09:03 463K
20260427T06Z_MSC_RDPS_WindU_IsbL-0650_RLatLon0.09_PT074H.grib2 2026-04-27 09:03 482K
20260427T06Z_MSC_RDPS_WindU_IsbL-0700_RLatLon0.09_PT074H.grib2 2026-04-27 09:03 504K
20260427T06Z_MSC_RDPS_WindU_IsbL-0750_RLatLon0.09_PT074H.grib2 2026-04-27 09:03 655K
20260427T06Z_MSC_RDPS_WindU_IsbL-0800_RLatLon0.09_PT074H.grib2 2026-04-27 09:03 695K
20260427T06Z_MSC_RDPS_WindU_IsbL-0850_RLatLon0.09_PT074H.grib2 2026-04-27 09:03 615K
20260427T06Z_MSC_RDPS_WindU_IsbL-0875_RLatLon0.09_PT074H.grib2 2026-04-27 09:03 634K
20260427T06Z_MSC_RDPS_WindU_IsbL-0900_RLatLon0.09_PT074H.grib2 2026-04-27 09:03 647K
20260427T06Z_MSC_RDPS_WindU_IsbL-0925_RLatLon0.09_PT074H.grib2 2026-04-27 09:03 656K
20260427T06Z_MSC_RDPS_WindU_IsbL-0950_RLatLon0.09_PT074H.grib2 2026-04-27 09:03 655K
20260427T06Z_MSC_RDPS_WindU_IsbL-0970_RLatLon0.09_PT074H.grib2 2026-04-27 09:03 652K
20260427T06Z_MSC_RDPS_WindU_IsbL-0985_RLatLon0.09_PT074H.grib2 2026-04-27 09:03 786K
20260427T06Z_MSC_RDPS_WindU_IsbL-1000_RLatLon0.09_PT074H.grib2 2026-04-27 09:03 781K
20260427T06Z_MSC_RDPS_WindU_IsbL-1015_RLatLon0.09_PT074H.grib2 2026-04-27 09:03 775K
20260427T06Z_MSC_RDPS_WindV_AGL-10m_RLatLon0.09_PT074H.grib2 2026-04-27 09:03 428K
20260427T06Z_MSC_RDPS_WindV_AGL-120m_RLatLon0.09_PT074H.grib2 2026-04-27 09:03 533K
20260427T06Z_MSC_RDPS_WindV_AGL-40m_RLatLon0.09_PT074H.grib2 2026-04-27 09:03 534K
20260427T06Z_MSC_RDPS_WindV_AGL-80m_RLatLon0.09_PT074H.grib2 2026-04-27 09:03 534K
20260427T06Z_MSC_RDPS_WindV_IsbL-0001_RLatLon0.09_PT074H.grib2 2026-04-27 09:03 245K
20260427T06Z_MSC_RDPS_WindV_IsbL-0005_RLatLon0.09_PT074H.grib2 2026-04-27 09:03 287K
20260427T06Z_MSC_RDPS_WindV_IsbL-0010_RLatLon0.09_PT074H.grib2 2026-04-27 09:03 302K
20260427T06Z_MSC_RDPS_WindV_IsbL-0020_RLatLon0.09_PT074H.grib2 2026-04-27 09:03 318K
20260427T06Z_MSC_RDPS_WindV_IsbL-0030_RLatLon0.09_PT074H.grib2 2026-04-27 09:03 318K
20260427T06Z_MSC_RDPS_WindV_IsbL-0050_RLatLon0.09_PT074H.grib2 2026-04-27 09:03 345K
20260427T06Z_MSC_RDPS_WindV_IsbL-0100_RLatLon0.09_PT074H.grib2 2026-04-27 09:03 337K
20260427T06Z_MSC_RDPS_WindV_IsbL-0150_RLatLon0.09_PT074H.grib2 2026-04-27 09:03 399K
20260427T06Z_MSC_RDPS_WindV_IsbL-0175_RLatLon0.09_PT074H.grib2 2026-04-27 09:03 424K
20260427T06Z_MSC_RDPS_WindV_IsbL-0200_RLatLon0.09_PT074H.grib2 2026-04-27 09:03 340K
20260427T06Z_MSC_RDPS_WindV_IsbL-0225_RLatLon0.09_PT074H.grib2 2026-04-27 09:03 344K
20260427T06Z_MSC_RDPS_WindV_IsbL-0250_RLatLon0.09_PT074H.grib2 2026-04-27 09:03 372K
20260427T06Z_MSC_RDPS_WindV_IsbL-0275_RLatLon0.09_PT074H.grib2 2026-04-27 09:03 385K
20260427T06Z_MSC_RDPS_WindV_IsbL-0300_RLatLon0.09_PT074H.grib2 2026-04-27 09:03 356K
20260427T06Z_MSC_RDPS_WindV_IsbL-0350_RLatLon0.09_PT074H.grib2 2026-04-27 09:03 364K
20260427T06Z_MSC_RDPS_WindV_IsbL-0400_RLatLon0.09_PT074H.grib2 2026-04-27 09:03 366K
20260427T06Z_MSC_RDPS_WindV_IsbL-0450_RLatLon0.09_PT074H.grib2 2026-04-27 09:03 470K
20260427T06Z_MSC_RDPS_WindV_IsbL-0500_RLatLon0.09_PT074H.grib2 2026-04-27 09:03 470K
20260427T06Z_MSC_RDPS_WindV_IsbL-0550_RLatLon0.09_PT074H.grib2 2026-04-27 09:03 469K
20260427T06Z_MSC_RDPS_WindV_IsbL-0600_RLatLon0.09_PT074H.grib2 2026-04-27 09:03 477K
20260427T06Z_MSC_RDPS_WindV_IsbL-0650_RLatLon0.09_PT074H.grib2 2026-04-27 09:03 495K
20260427T06Z_MSC_RDPS_WindV_IsbL-0700_RLatLon0.09_PT074H.grib2 2026-04-27 09:03 500K
20260427T06Z_MSC_RDPS_WindV_IsbL-0750_RLatLon0.09_PT074H.grib2 2026-04-27 09:03 525K
20260427T06Z_MSC_RDPS_WindV_IsbL-0800_RLatLon0.09_PT074H.grib2 2026-04-27 09:03 561K
20260427T06Z_MSC_RDPS_WindV_IsbL-0850_RLatLon0.09_PT074H.grib2 2026-04-27 09:03 611K
20260427T06Z_MSC_RDPS_WindV_IsbL-0875_RLatLon0.09_PT074H.grib2 2026-04-27 09:03 766K
20260427T06Z_MSC_RDPS_WindV_IsbL-0900_RLatLon0.09_PT074H.grib2 2026-04-27 09:03 782K
20260427T06Z_MSC_RDPS_WindV_IsbL-0925_RLatLon0.09_PT074H.grib2 2026-04-27 09:03 793K
20260427T06Z_MSC_RDPS_WindV_IsbL-0950_RLatLon0.09_PT074H.grib2 2026-04-27 09:03 792K
20260427T06Z_MSC_RDPS_WindV_IsbL-0970_RLatLon0.09_PT074H.grib2 2026-04-27 09:03 792K
20260427T06Z_MSC_RDPS_WindV_IsbL-0985_RLatLon0.09_PT074H.grib2 2026-04-27 09:03 833K
20260427T06Z_MSC_RDPS_WindV_IsbL-1000_RLatLon0.09_PT074H.grib2 2026-04-27 09:03 826K
20260427T06Z_MSC_RDPS_WindV_IsbL-1015_RLatLon0.09_PT074H.grib2 2026-04-27 09:03 819K